Location: Blienschwiller
(48.3416°N, 7.4182°E)
Time: 17:53:55
(UTC+00:00)

Cosmos 1605 Rocket - Pass Details

Date: 18 February 2020
Orbit: 944 x 1007 km, 82.9° (Epoch: 31 March)

Event Time Altitude Azimuth Distance (km) Brightness Sun altitude
Rises 04:29:02 0° 347° (NNW) 3,700 7.0 -21.3°
Reaches altitude 10° 04:31:38 10° 342° (NNW) 2,738 6.2 -20.9°
Maximum altitude 04:37:38 51° 269° (W) 1,198 4.0 -19.9°
Drops below altitude 10° 04:43:32 10° 195° (SSW) 2,679 6.1 -18.9°
Sets 04:46:04 0° 190° (S) 3,614 6.8 -18.5°
